CAPE
295 264 390 629 737 592 562 599 460 610 543 471 359 415 361 321 421 505 592 766 741 479 535 644 718 604 678 723 987 1177 1127 1353 1319 1216 1108 964 710 608 423 342 179 330 428 716
206 286 317 644 512 602 599 547 409 498 417 359 317 338 244 213 292 336 521 619 879 805 613 666 816 858 825 833 882 1076 1255 1341 1300 1343 1251 1079 788 629 402 399 378 202 244 433
3 180 237 482 560 563 464 407 398 504 597 432 633 409 363 256 201 216 372 488 678 959 731 737 831 976 1076 1116 1119 1272 1297 1417 1422 1550 1305 1222 1020 753 481 303 263 312 159 153
0 3 57 261 218 533 398 326 228 274 323 407 701 90 208 211 120 169 252 411 540 696 1074 877 918 962 1058 1235 1376 1493 1708 1601 1621 1543 1302 1211 1137 887 688 575 449 319 286 244
0 0 52 36 88 382 474 365 332 277 293 174 175 310 241 268 66 202 182 178 422 556 857 993 1042 991 947 1068 1494 1561 1869 1930 1795 1637 1620 1295 1105 841 719 609 396 249 297 289
0 0 0 29 99 438 222 386 201 162 125 106 208 286 211 186 140 60 79 251 249 468 723 879 1165 1143 1099 1074 1465 1562 1935 2145 1999 1843 1618 1565 1198 1076 663 510 503 347 433 321
0 0 0 0 1 53 242 217 167 238 365 303 291 107 126 203 23 53 98 239 419 349 527 824 933 1239 1245 1204 1540 1637 1881 2177 2132 2046 1831 1699 1406 1180 1160 976 775 635 456 287
0 0 0 2 20 119 127 178 164 399 315 324 227 113 108 42 7 3 16 221 393 526 461 470 780 1040 1215 1436 1643 1738 1811 2411 2217 2159 2033 1831 1551 1237 1106 829 1010 895 753 681
12 0 0 8 38 84 186 77 146 234 262 164 275 181 246 56 91 30 17 54 377 576 570 495 611 953 1232 1685 1777 1742 1778 2398 2320 2163 2190 2065 1697 1370 1220 1010 1115 1014 1039 679
0 10 7 0 23 18 109 293 72 180 148 132 276 246 146 97 12 7 3 1 206 593 672 700 779 967 1137 1616 1696 1696 1929 2293 2374 2173 2200 2107 1945 1540 1406 1316 1259 1160 1079 1162
0 0 1 0 0 51 113 172 482 370 210 364 356 222 48 0 55 2 0 0 13 318 787 773 873 1024 1254 1496 1581 1892 1990 2195 2314 2166 2058 1960 1901 1525 1373 1346 1416 1368 1225 981
0 0 0 0 0 0 13 126 57 143 148 98 60 123 37 60 10 6 4 11 81 244 610 901 966 968 1117 1368 1596 1889 1945 2075 2175 2118 2184 1979 1881 1580 1210 1325 1315 1473 1337 1336
0 0 0 0 5 1 0 0 162 169 184 227 144 121 82 106 0 0 2 11 170 543 618 832 957 1088 1057 1316 1610 1699 1957 1936 1993 2084 2187 2025 1861 1649 1091 1214 1281 1336 1512 1153
0 0 0 0 1 11 0 0 26 176 273 298 172 120 131 94 1 8 3 39 119 639 804 756 896 1013 1171 1215 1502 1590 1802 1803 1874 2039 2085 1964 1789 1602 979 982 1264 1350 1017 1057
0 0 0 0 1 1 0 0 0 0 4 78 170 162 161 51 26 11 0 38 169 351 696 965 926 992 1255 1386 1774 1845 1771 1800 1865 1981 2049 1793 1736 1490 1052 1196 1382 1218 987 945
0 0 0 0 0 0 0 0 0 0 0 0 0 12 38 11 15 0 0 1 0 56 367 858 1219 1188 1340 1585 1959 2086 2008 1933 2006 2146 1956 1960 1843 1427 1251 1420 1212 1089 1076 1093
0 0 0 0 0 0 0 0 0 0 0 0 0 0 0 0 17 12 12 0 3 69 109 446 1111 1490 1487 1845 2110 2228 2145 2068 2272 2345 2101 2048 1760 1525 1390 1271 1272 1159 1125 1042
0 0 1 8 48 21 10 7 0 0 0 0 1 1 4 15 8 0 2 207 227 266 214 539 1116 1529 1663 1933 2105 2169 2179 2377 2335 2373 2251 2039 1798 1603 1390 1197 1179 1169 1024 1066
15 33 17 32 52 42 11 7 0 0 64 19 123 94 215 116 5 14 666 613 585 407 278 305 1106 1422 1819 1998 2090 2326 2241 2448 2482 2463 2404 2155 1893 1563 1311 1141 1162 1309 1149 1089
0 0 42 61 62 44 56 1 6 2 0 0 143 461 654 643 142 218 792 621 497 708 941 813 1153 1542 1894 2123 2190 2380 2574 2661 2657 2597 2536 2351 1978 1473 1300 1215 1260 1104 1054 964
0 0 0 5 26 84 0 0 0 0 13 11 78 486 790 1136 1462 1374 1289 1385 865 1261 1632 1669 1398 1391 1887 2165 2275 2567 2743 2725 2702 2690 2499 2302 1919 1610 1494 1399 1320 1170 951 884
21 1 4 10 16 31 1 1 70 0 0 0 3 165 589 955 1293 1338 1415 1619 1490 1109 1685 2120 1958 1779 2031 2185 2509 2726 2709 2899 2927 2900 2507 2340 2001 1521 1418 1644 1703 1415 1397 1213
1 3 17 22 19 0 0 0 0 0 0 0 0 0 4 196 596 839 1115 1359 1667 1509 1306 2092 2113 2130 2173 2375 2456 2602 3030 3042 2998 2898 2693 2516 1981 1695 1747 1801 1458 1466 1424 891
0 0 0 0 0 0 0 0 0 0 0 0 0 0 0 0 25 140 520 931 1358 1875 1885 1759 2261 2220 2355 2483 2525 2699 2992 3024 3009 2931 2772 2511 2063 1676 1843 1588 1416 1276 1394 1162
0 0 0 0 0 0 0 0 0 0 0 0 0 0 0 0 0 0 2 112 733 1178 1698 2241 2111 2487 2609 2586 2689 2667 2974 3135 3028 2843 2563 2308 1859 1447 1823 1552 1294 1176 1061 947
0 0 0 0 0 0 0 0 0 0 0 0 0 0 0 0 0 0 0 0 4 613 1027 1781 2548 2497 2780 2887 2851 2739 2620 3056 2997 2875 2545 2034 1670 1519 1187 1280 1028 884 825 747
CIN
-96 -40 -4 -12 -9 -32 -19 -0 -4 -2 -3 -20 -8 -3 -2 -3 -3 -3 -3 -3 -2 -3 -1 -14 -21 -35 -31 -11 -4 -7 -13 -0 -1 -0 -0 -1 -1 -1 -1 -4 -0 -2 -3 -0
-92 -69 -19 -13 -40 -2 -2 -1 -2 -2 -9 -31 -2 -4 -4 -3 -2 -5 -3 -2 -3 -3 -6 -3 -16 -13 -35 -36 -20 -10 -3 -13 -11 -0 -0 -1 -3 -2 -4 -2 -3 -19 -4 -1
-21 -55 -48 -52 -7 -2 -7 -6 -7 -4 -2 -11 -17 -13 -6 -6 -8 -6 -4 -2 -3 -6 -12 -5 -5 -11 -33 -39 -29 -9 -6 -4 -11 -0 -1 -0 -0 -1 -7 -5 -8 -1 -29 -14
-0 -80 -136 -70 -79 -5 -5 -37 -43 -16 -7 -2 -4 -19 -2 -5 -3 -2 -1 -5 -3 -4 -22 -3 -2 -13 -45 -38 -26 -6 -1 -1 -2 -8 -10 -3 -0 -0 -1 -1 -0 -1 -6 -6
-0 -0 -132 -174 -129 -15 -3 -35 -4 -13 -5 -43 -47 -2 -1 -15 -45 -12 -10 -7 -5 -5 -7 -8 -4 -13 -36 -18 -15 -20 -9 -1 -0 -8 -1 -8 -5 -2 -1 -8 -4 -4 -8 -7
-0 -0 -0 -190 -98 -11 -37 -7 -33 -50 -60 -60 -36 -3 -3 -44 -32 -72 -72 -27 -42 -2 -5 -3 -7 -19 -22 -1 -1 -9 -20 -14 -1 -7 -12 -3 -8 -1 -1 -1 -6 -3 -2 -24
-0 -0 -0 -0 -0 -78 -22 -11 -22 -11 -9 -9 -8 -12 -15 -9 -61 -85 -61 -30 -51 -45 -5 -5 -3 -4 -12 -3 -4 -1 -38 -24 -15 -8 -11 -6 -6 -2 -1 -1 -1 -7 -9 -1
-0 -0 -0 -178 -125 -14 -15 -3 -13 -4 -9 -15 -5 -8 -78 -44 -27 -9 -57 -13 -45 -53 -6 -4 -4 -2 -5 -1 -3 -2 -27 -15 -17 -14 -19 -22 -10 -4 -2 -5 -0 -1 -2 -2
-5 -0 -0 -96 -76 -9 -8 -29 -11 -11 -11 -2 -7 -14 -41 -14 -6 -3 -2 -19 -6 -37 -36 -30 -20 -25 -2 -3 -23 -31 -7 -17 -15 -15 -9 -9 -24 -18 -10 -5 -0 -1 -1 -4
-0 -3 -4 -2 -62 -58 -18 -8 -32 -6 -5 -7 -8 -30 -3 -27 -27 -3 -2 -3 -2 -17 -48 -43 -42 -45 -23 -22 -25 -28 -2 -14 -11 -3 -7 -6 -11 -33 -12 -9 -2 -1 -4 -4
-0 -0 -1 -0 -0 -34 -17 -15 -4 -11 -16 -33 -6 -27 -80 -1 -12 -2 -1 -0 -2 -3 -39 -52 -59 -59 -41 -25 -5 -13 -7 -5 -3 -6 -2 -3 -1 -5 -19 -24 -7 -1 -0 -12
-0 -0 -0 -0 -0 -0 -41 -6 -25 -13 -4 -14 -11 -11 -29 -8 -6 -4 -3 -2 -9 -15 -22 -47 -56 -52 -38 -23 -12 -14 -19 -11 -8 -3 -2 -6 -0 -1 -6 -14 -16 -0 -0 -0
-0 -0 -0 -0 -3 -3 -0 -0 -8 -7 -7 -10 -15 -44 -82 -33 -1 -0 -5 -5 -15 -24 -26 -28 -44 -61 -43 -16 -13 -9 -24 -18 -6 -2 -4 -6 -3 -5 -6 -7 -3 -4 -0 -0
-0 -0 -0 -0 -1 -4 -0 -0 -12 -6 -14 -6 -8 -38 -5 -15 -2 -3 -5 -3 -14 -19 -29 -28 -26 -38 -72 -40 -43 -19 -27 -26 -19 -4 -6 -16 -8 -2 -6 -1 -4 -1 -4 -0
-0 -0 -0 -0 -0 -2 -0 -0 -0 -0 -11 -21 -9 -13 -12 -15 -13 -8 -0 -2 -14 -17 -22 -37 -29 -27 -59 -68 -69 -56 -36 -35 -34 -13 -11 -39 -16 -8 -2 -1 -0 -2 -4 -2
-0 -0 -0 -0 -0 -0 -0 -0 -0 -0 -0 -0 -0 -71 -35 -226 -17 -0 -0 -6 -0 -8 -19 -41 -50 -37 -67 -90 -107 -103 -80 -56 -34 -20 -11 -6 -16 -8 -3 -1 -0 -1 -1 -1
-0 -0 -0 -0 -0 -0 -0 -0 -0 -0 -0 -0 -0 -0 -2 -2 -9 -7 -4 -1 -1 -14 -30 -24 -50 -66 -68 -102 -137 -133 -119 -67 -40 -27 -5 -2 -11 -3 -1 -1 -0 -0 -0 -1
-0 -0 -1 -6 -5 -3 -4 -10 -0 -0 -0 -0 -2 -2 -2 -9 -14 -7 -8 -8 -18 -21 -36 -35 -49 -84 -102 -98 -134 -112 -94 -77 -49 -32 -11 -5 -6 -1 -0 -1 -0 -0 -3 -0
-7 -4 -6 -7 -6 -6 -7 -14 -0 -0 -26 -116 -65 -25 -19 -15 -5 -7 -15 -32 -30 -28 -33 -29 -46 -68 -130 -112 -131 -107 -90 -89 -55 -39 -19 -7 -2 -0 -1 -0 -0 -1 -3 -2
-0 -0 -11 -4 -5 -9 -21 -108 -105 -18 -0 -0 -130 -92 -75 -33 -6 -4 -36 -39 -45 -30 -34 -37 -40 -60 -115 -107 -100 -98 -84 -92 -62 -45 -35 -16 -10 -3 -2 -0 -1 -9 -7 -9
-0 -0 -0 -10 -6 -10 -19 -0 -26 -0 -130 -253 -210 -165 -140 -84 -62 -52 -46 -55 -55 -32 -33 -53 -64 -54 -81 -118 -86 -84 -80 -87 -76 -22 -33 -47 -42 -13 -2 -7 -6 -4 -5 -9
-14 -4 -6 -9 -6 -5 -96 -69 -58 -0 -0 -0 -44 -217 -190 -135 -78 -69 -85 -64 -50 -47 -45 -51 -70 -66 -74 -112 -58 -66 -91 -72 -47 -18 -29 -71 -65 -29 -16 -1 -3 -3 -1 -0
-0 -1 -45 -56 -137 -0 -0 -0 -0 -0 -0 -0 -0 -0 -30 -234 -169 -139 -122 -126 -100 -58 -51 -33 -28 -83 -81 -80 -61 -61 -55 -60 -43 -30 -19 -41 -95 -54 -21 -9 -16 -5 -4 -7
-0 -0 -0 -0 -0 -0 -0 -0 -0 -0 -0 -0 -0 -0 -0 -0 -114 -253 -178 -201 -165 -113 -78 -45 -2 -15 -42 -57 -57 -42 -30 -36 -28 -29 -19 -36 -71 -69 -27 -28 -27 -10 -6 -5
-0 -0 -0 -0 -0 -0 -0 -0 -0 -0 -0 -0 -0 -0 -0 -0 -0 -0 -10 -329 -254 -214 -154 -67 -50 -1 -1 -25 -39 -27 -14 -19 -14 -10 -9 -27 -60 -93 -33 -45 -33 -27 -14 -35
-0 -0 -0 -0 -0 -0 -0 -0 -0 -0 -0 -0 -0 -0 -0 -0 -0 -0 -0 -0 -71 -266 -247 -143 -38 -14 -1 -1 -16 -23 -9 -5 -15 -8 -2 -5 -27 -67 -66 -55 -38 -57 -39 -64
Wind_Speed
10 7 11 10 9 9 13 9 8 12 14 14 6 13 14 7 7 8 9 11 11 14 14 15 13 9 9 12 11 12 12 11 12 9 8 8 6 5 7 19 5 14 11 21
8 12 5 8 11 5 6 5 10 11 15 13 7 14 19 4 5 5 7 8 10 13 14 14 14 12 12 14 12 13 14 12 13 12 11 10 10 7 8 3 5 3 28 25
8 2 3 5 1 6 4 8 14 22 14 3 15 13 4 3 4 4 2 6 10 13 14 15 15 15 13 12 13 11 13 13 14 14 11 9 7 3 5 11 5 4 8 29
8 7 8 14 6 3 11 12 13 16 16 20 11 26 13 9 11 9 8 2 7 11 14 17 18 15 15 13 13 11 12 13 13 13 10 9 11 9 8 8 10 5 3 19
11 10 9 13 6 7 12 13 17 17 17 13 16 14 16 11 9 13 16 21 2 8 14 16 19 19 18 18 14 13 13 13 13 13 13 9 12 11 4 4 11 4 7 17
16 12 17 9 5 6 13 18 16 11 11 17 13 16 20 14 17 18 18 19 15 5 11 15 19 19 20 21 14 16 15 12 14 12 14 9 8 14 3 4 7 5 1 3
14 16 10 14 10 10 9 16 14 11 12 14 8 14 19 19 20 19 20 18 14 10 7 13 16 16 16 22 17 15 12 15 13 11 11 13 11 10 7 4 4 1 17 7
17 18 12 9 11 10 12 9 13 19 15 13 19 19 15 18 17 17 16 14 17 12 6 10 14 18 18 19 19 18 17 15 14 12 10 8 9 8 7 9 5 5 21 29
15 20 10 12 10 9 6 10 20 27 15 22 23 19 29 10 10 17 20 18 14 15 10 7 8 12 16 15 20 23 20 15 15 14 9 8 8 11 6 4 4 6 13 18
24 19 10 9 12 25 25 21 11 13 22 25 21 23 17 4 12 18 21 23 15 13 11 8 9 12 15 14 19 24 20 17 16 16 12 12 9 8 9 2 2 1 2 15
35 18 12 9 13 14 11 22 24 19 24 19 24 16 17 14 13 20 23 23 23 14 10 7 9 11 14 15 19 20 20 17 16 16 13 11 9 6 6 0 1 3 5 8
21 23 19 12 16 16 39 7 19 34 19 29 32 14 6 11 19 21 23 23 21 19 11 7 6 10 12 14 16 15 17 17 16 14 10 8 7 5 5 2 3 5 7 10
17 29 30 23 12 12 15 26 27 16 38 35 23 24 31 20 20 21 23 24 20 18 15 9 5 6 10 13 14 13 11 14 12 10 9 8 6 4 6 2 3 4 8 12
25 27 31 31 22 9 15 31 37 40 38 34 33 34 18 21 19 21 24 23 23 17 16 11 5 4 6 10 10 10 10 10 10 10 8 5 7 4 3 2 3 5 9 11
27 33 34 33 31 23 26 16 21 30 37 40 37 31 27 24 18 23 24 22 23 21 18 12 9 3 3 8 10 11 11 11 9 9 7 5 5 3 3 5 6 11 9 13
21 32 30 30 32 28 30 27 23 16 24 32 37 39 25 20 25 22 23 25 27 24 21 17 12 4 3 7 8 10 10 9 7 6 7 3 2 4 5 8 10 13 10 12
20 27 25 26 27 30 28 23 19 21 22 23 26 33 34 33 25 24 26 30 30 28 30 22 10 4 3 6 9 12 10 6 6 3 4 2 1 2 6 7 11 10 8 14
19 22 26 27 23 26 23 21 18 26 27 27 30 28 30 29 28 27 30 27 28 30 31 25 16 4 1 4 10 13 11 6 5 3 7 6 6 6 3 5 7 9 15 14
23 23 23 25 24 19 13 15 18 20 15 21 25 25 26 26 25 27 22 28 31 34 35 27 16 4 4 4 9 11 10 7 6 9 9 8 6 7 5 2 2 9 12 12
28 27 28 24 27 28 11 17 18 20 18 24 24 24 27 29 30 27 31 32 34 34 32 26 16 7 3 6 9 9 10 9 8 11 12 9 6 9 8 4 2 3 7 8
30 29 29 30 30 20 20 20 19 23 21 23 24 24 25 25 27 32 33 34 32 31 28 24 19 14 2 4 9 8 8 8 9 10 12 11 7 9 7 4 3 2 1 3
23 28 31 34 37 34 26 20 22 18 19 22 24 24 25 27 27 28 30 32 32 29 28 24 22 17 6 3 5 8 10 6 8 9 14 15 12 14 10 9 4 4 4 1
23 20 21 20 17 13 16 13 16 19 20 23 24 25 27 28 29 29 30 31 32 30 27 26 22 18 9 1 4 9 6 5 7 8 13 13 13 14 13 12 11 9 8 5
18 23 23 21 15 15 15 17 20 21 23 25 26 27 28 29 29 30 31 31 31 30 28 26 22 14 13 4 4 6 4 5 6 7 8 9 9 12 12 15 12 14 13 12
18 20 21 21 18 23 18 22 25 26 27 29 30 30 31 31 31 32 31 30 30 29 29 27 24 21 13 8 5 5 3 4 5 5 6 6 6 11 10 19 17 15 15 14
20 20 21 20 21 23 25 28 28 29 32 34 34 34 34 33 33 32 32 30 30 29 28 27 25 23 21 12 7 6 5 6 7 7 7 7 7 8 9 16 16 17 16 15
Wind_Direction
146 138 160 146 11 21 144 70 101 29 359 350 79 194 199 61 119 144 154 155 152 158 145 139 135 126 127 137 139 144 148 144 143 139 137 141 137 132 142 247 12 301 147 266
162 177 324 346 320 60 35 81 339 13 348 355 32 220 222 143 163 160 167 172 169 163 158 152 146 142 141 140 140 143 149 146 152 152 149 148 148 142 149 124 335 121 236 240
197 252 260 14 76 339 4 342 336 307 342 27 346 228 131 75 65 32 137 179 181 179 174 167 163 157 151 148 148 144 147 146 154 159 154 152 149 135 151 172 307 145 244 221
244 273 298 304 300 310 317 319 339 329 337 324 10 309 358 22 15 18 21 114 186 183 173 180 174 169 165 162 153 150 150 149 148 154 146 155 165 170 175 171 169 294 181 179
262 255 279 287 256 291 318 326 322 327 328 336 335 337 358 9 17 20 1 338 107 173 177 176 175 180 173 170 164 158 154 155 151 153 160 151 172 173 160 166 170 178 292 276
269 277 281 282 266 307 293 320 317 326 329 321 324 326 331 355 304 343 352 1 10 123 164 170 174 176 177 177 166 165 161 161 161 156 164 156 153 179 119 148 308 156 250 301
261 270 279 282 255 277 297 298 308 303 304 320 325 324 317 313 338 337 335 355 28 51 140 165 173 171 178 181 172 170 167 168 166 162 162 167 162 161 151 128 136 223 176 175
252 257 256 275 260 255 279 269 293 315 304 333 319 330 323 327 346 357 356 1 359 32 94 154 167 175 170 172 175 175 175 172 171 171 171 164 158 146 138 151 136 145 185 248
256 263 236 256 266 245 252 252 284 294 298 304 310 320 268 349 16 0 357 359 1 7 28 95 146 164 166 167 179 180 177 175 176 173 167 163 157 164 133 110 132 160 171 277
272 271 258 247 265 263 268 273 295 298 294 296 304 302 320 338 349 345 343 339 359 7 33 95 130 151 162 164 170 177 175 175 174 173 167 168 164 164 164 45 86 67 212 287
249 274 264 255 250 261 262 275 277 285 275 301 290 312 312 277 4 342 331 332 333 2 19 69 130 144 156 159 162 167 171 172 173 175 171 172 171 168 166 266 324 328 299 282
242 266 267 241 270 271 239 240 247 260 285 277 276 305 66 351 353 344 330 341 337 345 10 60 105 141 152 157 161 163 166 169 171 168 168 170 173 178 180 217 265 298 290 278
234 249 258 262 267 262 267 202 206 197 238 263 288 294 242 300 334 334 347 333 341 345 359 18 83 131 154 159 164 162 164 166 165 165 169 174 182 195 191 229 252 277 282 270
246 251 250 254 265 269 274 261 253 252 261 267 269 273 313 317 335 326 336 343 339 349 356 12 44 115 151 164 164 171 169 167 168 165 167 183 189 205 218 246 277 255 276 258
245 247 250 253 263 274 269 276 274 268 262 255 250 278 284 273 331 325 325 336 343 338 347 6 5 53 126 165 164 164 166 166 167 169 172 180 192 221 261 307 296 287 266 257
249 248 255 260 262 271 271 275 278 279 278 274 271 266 292 217 305 323 313 317 322 333 333 341 353 36 129 172 173 166 166 165 165 165 177 178 242 275 294 310 299 280 261 253
251 250 257 268 272 271 272 275 280 283 280 285 285 272 269 281 302 314 306 304 315 318 314 326 342 7 133 164 176 172 167 165 156 150 170 162 193 222 296 299 284 274 253 255
257 256 258 265 282 272 279 281 279 275 276 282 281 284 281 276 290 307 304 314 316 314 316 319 325 355 102 154 166 166 162 157 147 127 150 144 141 143 137 285 272 268 256 256
257 259 261 264 272 285 299 296 291 287 304 308 297 298 297 297 301 301 329 319 317 312 311 309 316 346 134 148 161 166 162 154 143 142 139 135 128 132 120 176 221 265 259 261
255 256 261 264 264 262 308 312 307 291 289 305 303 301 299 293 289 285 317 321 319 319 314 304 312 329 90 140 150 168 164 154 152 149 140 126 109 132 130 135 174 247 263 270
249 253 255 257 260 278 294 301 305 288 294 312 310 309 306 303 301 301 310 312 324 326 320 305 306 309 352 132 156 166 179 166 153 146 138 129 114 131 131 135 139 143 172 285
259 256 258 259 259 262 294 300 291 306 313 315 317 317 312 308 312 316 317 315 317 323 318 309 300 308 318 137 168 172 172 165 151 150 147 139 126 135 134 141 152 141 126 84
262 274 275 283 292 309 320 331 323 316 316 314 314 316 313 311 312 317 318 323 322 320 320 308 304 306 314 281 178 173 184 172 160 161 157 150 138 141 137 144 152 150 148 143
280 282 274 284 294 301 312 319 316 314 313 310 310 309 311 310 311 314 316 320 319 318 314 312 309 313 305 303 197 186 185 188 177 181 173 162 157 152 149 154 157 162 161 163
291 289 282 283 298 290 301 307 307 307 308 307 307 306 306 306 308 309 310 316 317 317 316 310 306 306 307 298 255 196 199 211 215 208 216 194 195 175 171 170 170 173 175 172
295 292 287 291 304 299 299 304 305 304 302 302 302 302 304 304 303 306 306 310 312 313 315 314 309 301 296 294 273 240 205 221 230 248 240 216 203 193 207 182 182 183 182 178